Find WEBERSAT-OSCAR-18

NORAD ID: 20441 Int'l Des: 1990-005 Owner: WEBC Country: US operational
LEOCIRCULARRETROGRADESSO

当前视图

正在加载3D地球...

About WEBERSAT-OSCAR-18

WEBERSAT-OSCAR-18 (NORAD 20441) is a satellite launched Jan 22, 1990 by WEBC of US. It operates in LEO, CIRCULAR, RETROGRADE, SSO orbit with a mass of 12.00 kg.

即将过境

Passes for default location (London). Set your location on the main map for personalized predictions.

高度历史

Loading altitude history...

两行轨道根数

1 20441U 90005F 26194.61363738 .00000038 00000-0 30312-4 0 9998
2 20441 98.8718 223.7435 0011939 139.4071 337.5698 14.33998071905840
Epoch: Jul 13, 2026 • Age: 13 hours

当前状态

高度 811.0 km
远地点 / 近地点 N/A
速度 7.44 km/s
星下点 -65.24°S, 97.1°W
发射日期 Jan 22, 1990
运行时间 36.4 years
类型 other

技术详情

分类 Payload
质量 12.00 kg
干质量 12.00 kg
总质量 12.00 kg
长度 0.30 m
直径 0.20 m
跨度 0.20 m
形状 Box
制造商 WEB/AMNA
平台类型 Microsat
阶段状态 In Orbit
所有者/国家 WEBC/US

Most Searched